Theta_e
309 309 309 309 309 309 308 307 307 308 307 308 307 307 308 308 308 308 308 308 308 308 309 308 309 308 309 309 309 310 310 311 316 318 318 317 314 315 313 313 314 313 314 315 316 316 316 316 317 317 317 320 319 320 321 321 321 319 321 320 318 318 317 320 320 317 317 318 317 317 317 316 316 317 316 315 315 316 316 317 317 317 318 317 318 320 318 317
309 309 309 309 310 310 309 309 308 309 308 308 308 308 308 308 308 308 309 309 309 309 309 309 309 309 310 309 309 311 309 313 318 320 318 316 314 314 313 313 313 313 314 316 316 316 316 316 317 317 318 319 319 319 320 321 321 320 321 320 319 320 319 319 319 316 316 317 317 316 317 317 317 317 316 316 316 316 316 317 317 317 317 318 318 319 319 317
309 309 309 309 309 310 309 309 309 309 309 308 308 309 308 309 309 309 309 309 309 309 309 309 309 309 310 309 311 310 311 318 321 319 318 315 314 315 315 314 314 313 314 316 316 316 316 316 317 317 317 318 318 319 320 320 320 319 320 320 320 320 320 319 319 317 317 316 317 316 316 317 317 316 316 316 316 316 316 317 317 317 317 318 318 318 319 318
310 310 310 309 309 310 310 310 310 309 309 309 308 309 309 309 309 309 309 309 309 309 309 309 309 310 309 310 310 310 316 323 320 316 317 314 314 315 315 316 315 313 314 316 316 316 315 315 317 316 317 318 318 319 319 320 320 319 321 320 319 319 319 319 318 317 317 317 317 316 316 316 316 316 316 316 316 316 316 317 317 316 317 317 317 318 318 319
310 311 309 310 309 310 310 310 310 309 309 309 308 309 309 308 309 309 309 309 309 309 309 309 309 309 309 309 309 311 318 320 316 316 316 314 315 315 315 317 315 314 315 315 315 315 315 315 316 316 317 317 317 319 318 319 320 320 320 320 318 317 318 318 317 317 317 317 316 316 316 317 317 317 316 316 316 316 316 316 316 316 316 316 316 317 318 319
311 313 310 309 310 309 310 310 310 310 308 308 308 308 308 308 308 308 309 308 309 309 309 309 309 309 309 309 310 314 318 315 314 318 316 315 316 314 315 316 316 314 315 315 315 316 315 315 316 316 317 316 316 317 317 318 320 319 318 317 317 317 318 317 317 317 317 316 316 316 316 317 317 316 316 316 316 316 316 316 316 316 316 317 317 317 317 317
313 314 312 310 310 310 310 310 310 310 308 309 308 309 309 309 309 309 310 309 310 310 310 311 310 310 309 310 313 316 316 314 316 317 315 316 315 314 315 316 315 314 315 316 316 316 315 315 315 315 316 315 315 316 316 317 319 318 316 316 316 316 317 317 317 317 317 317 316 316 316 316 316 316 316 316 317 317 317 317 317 316 317 317 317 316 317 317
314 314 312 311 311 310 311 311 311 310 310 310 311 311 310 311 311 311 312 312 312 312 312 312 311 312 310 313 318 316 315 316 317 316 314 314 314 314 315 315 315 314 315 316 316 316 315 315 315 315 315 315 315 315 316 316 317 318 317 316 316 316 317 317 316 316 317 317 316 316 316 316 316 316 316 316 316 316 317 317 316 316 317 317 316 316 316 317
314 314 313 313 312 311 312 312 312 311 311 311 311 311 311 312 312 312 312 312 312 312 312 312 311 312 311 314 317 314 316 318 315 314 313 313 314 314 315 315 315 315 316 316 316 316 315 315 315 315 315 314 315 315 316 315 315 316 317 316 316 316 316 316 315 315 316 316 315 315 315 315 315 315 315 315 316 316 316 316 316 316 316 316 316 316 316 316
315 315 315 313 312 312 312 312 312 311 312 312 312 312 313 312 312 312 312 312 312 311 311 311 311 311 312 315 316 315 319 317 313 314 313 312 314 314 316 316 315 316 317 316 317 316 316 316 317 316 315 314 315 314 315 315 314 315 315 315 314 314 314 314 314 314 315 315 315 315 315 315 315 315 314 315 315 316 316 315 316 315 315 315 315 315 315 316
316 315 315 314 313 312 313 313 313 313 314 315 314 314 314 314 313 312 312 312 311 311 310 310 309 310 314 316 316 319 319 314 313 314 313 313 315 316 317 317 316 316 317 317 317 316 316 317 317 316 314 314 314 315 315 314 314 314 314 313 313 313 314 314 314 314 315 315 314 314 314 314 314 314 314 315 315 315 315 315 315 314 315 315 315 316 315 316
316 315 315 313 313 313 314 314 315 316 317 317 316 317 317 316 315 314 314 312 312 311 310 310 309 310 314 315 316 320 317 313 314 313 313 315 316 316 317 316 315 316 317 317 317 318 317 317 316 314 314 314 314 314 314 312 313 313 312 313 313 314 314 314 314 315 315 315 314 313 313 313 314 314 315 315 316 316 315 314 315 314 315 315 315 315 316 316
316 315 314 313 313 314 315 315 316 318 319 318 317 318 318 317 317 316 315 313 312 310 309 310 309 310 314 315 315 319 317 315 314 312 312 315 316 316 316 316 315 315 316 316 316 316 316 315 315 315 314 314 314 314 311 311 312 312 312 313 313 314 314 315 316 315 315 314 313 312 311 312 315 315 315 316 316 315 314 314 314 314 314 314 315 315 315 316
315 315 314 314 314 314 315 316 318 319 319 319 319 319 318 318 317 315 314 312 311 311 311 310 308 311 315 314 314 315 316 314 312 313 313 314 316 316 316 316 315 314 314 314 313 313 313 313 314 314 313 313 313 313 311 313 313 313 313 313 314 313 314 316 316 314 314 313 312 312 310 312 314 315 315 316 315 314 314 314 314 314 314 314 314 315 314 315
315 314 314 314 314 314 316 318 320 320 320 320 319 319 319 317 315 313 312 311 311 311 311 310 310 313 315 313 314 313 313 313 313 315 314 314 316 316 314 315 314 313 312 312 312 311 311 313 314 314 313 312 312 312 313 313 314 314 314 313 314 314 314 318 316 314 314 312 311 312 311 312 314 314 315 315 314 314 313 313 313 313 314 314 314 314 314 315
315 314 314 314 314 316 318 320 321 321 320 320 319 319 318 315 314 313 312 311 312 310 312 315 313 313 315 314 314 313 314 315 315 315 312 313 316 315 314 313 313 312 312 311 311 311 311 312 313 313 313 313 312 313 313 314 314 315 314 313 315 314 314 317 317 316 315 313 311 312 312 312 313 314 314 314 314 314 313 314 314 314 314 314 314 314 314 315
315 314 314 314 315 318 319 320 321 321 321 320 319 318 315 314 314 312 311 310 311 310 312 318 314 311 314 314 314 314 315 315 314 314 311 311 314 314 313 313 313 312 312 311 311 311 311 312 312 312 312 312 313 314 314 314 314 315 316 315 315 316 315 314 316 316 315 313 312 313 312 312 313 313 313 313 314 314 313 314 314 314 314 314 314 315 315 315
315 315 315 315 317 319 320 321 321 321 321 320 319 316 314 315 313 312 312 310 311 311 311 313 312 315 316 314 313 313 314 313 312 312 312 311 312 313 313 312 313 312 312 312 312 311 311 312 312 312 313 313 313 314 315 316 315 315 316 315 315 316 315 314 315 316 315 314 315 314 313 313 314 314 314 314 314 314 313 314 314 314 314 314 315 315 315 315
316 316 316 317 319 320 320 321 321 322 321 321 318 314 314 316 313 312 315 312 313 317 316 314 314 317 318 316 315 313 313 312 311 313 313 311 311 312 312 312 313 312 313 313 313 312 312 313 313 313 315 315 315 314 315 316 316 316 316 315 314 314 314 314 315 316 316 315 315 315 314 314 314 314 314 314 314 314 314 314 314 314 315 315 315 316 316 316
316 317 317 318 319 320 322 322 322 322 321 321 317 314 317 321 320 317 315 314 316 319 320 318 317 318 319 319 316 314 313 312 312 314 313 311 311 312 312 312 313 313 313 315 315 313 313 315 315 315 316 317 317 316 316 316 316 316 316 315 315 314 314 315 316 316 316 315 314 314 314 313 314 313 313 313 314 313 313 314 314 315 316 316 316 317 317 316
318 319 319 320 321 322 323 323 323 322 321 320 317 318 320 320 322 320 317 318 320 321 320 320 320 320 321 320 315 313 314 313 313 314 312 311 311 313 313 312 314 314 315 316 315 313 313 316 317 316 316 317 317 316 315 315 316 315 315 314 314 314 315 316 317 317 316 314 314 314 313 313 313 313 313 313 314 314 313 314 315 315 316 317 317 317 316 315
320 322 322 321 322 323 323 323 322 321 321 320 319 320 318 315 315 315 315 320 322 321 321 320 320 319 319 319 314 312 315 315 316 314 311 311 312 314 314 313 314 316 315 315 315 315 315 316 316 316 316 316 316 315 314 314 315 314 314 314 315 315 316 317 317 316 314 313 313 314 313 313 313 313 314 314 314 315 315 315 316 316 317 317 316 315 315 315
322 322 322 322 322 322 323 323 322 322 321 321 320 319 317 313 312 310 312 318 320 320 320 319 318 317 317 318 313 312 316 317 318 315 311 312 312 313 314 314 315 317 316 315 316 317 318 318 316 316 316 316 316 315 314 314 314 315 315 315 315 316 317 316 317 315 313 313 313 314 313 314 315 315 315 316 315 315 316 316 317 317 316 316 315 315 315 315
322 322 323 323 322 323 323 323 323 323 321 320 319 319 316 312 310 310 313 318 321 320 318 316 315 316 316 315 312 313 316 317 317 315 312 313 313 313 314 315 316 317 316 315 316 317 319 318 315 315 316 316 316 315 315 314 315 316 316 316 316 317 317 316 316 315 314 314 314 313 314 315 316 317 316 316 317 316 317 317 317 317 316 315 315 314 315 314
321 322 324 323 322 322 322 323 323 323 322 320 318 318 316 312 310 310 314 320 323 320 316 314 315 314 312 311 311 312 315 315 313 312 312 312 313 313 314 314 315 317 317 316 316 316 317 316 314 315 315 315 316 315 315 316 316 317 318 317 316 316 316 315 315 315 314 315 313 313 316 316 315 316 317 317 317 317 318 318 316 315 315 315 314 313 314 313
321 322 324 323 324 322 322 324 323 322 323 322 319 318 316 314 312 311 314 322 326 323 318 316 315 312 309 310 311 311 315 315 310 310 311 311 311 312 313 314 314 315 316 315 316 316 316 314 314 315 316 316 316 315 315 316 315 316 318 317 316 316 316 315 315 315 315 315 314 313 316 317 316 316 318 318 318 318 318 317 315 314 313 313 313 312 311 311
322 323 324 324 324 323 323 324 323 323 324 323 320 318 316 315 312 311 317 327 329 323 318 314 313 311 309 309 309 311 316 314 309 309 310 310 310 310 313 314 313 313 312 313 316 316 315 314 314 314 315 316 316 316 316 315 315 317 316 315 315 315 315 316 315 315 314 314 315 314 315 317 317 317 318 318 317 318 316 314 313 313 312 311 310 309 309 309
323 323 324 324 324 324 323 324 324 324 325 323 320 318 317 314 310 311 322 333 330 319 315 312 310 310 309 308 308 310 310 309 311 311 308 309 310 310 312 314 314 313 311 313 317 316 314 315 315 315 315 316 316 316 317 316 316 317 314 313 313 313 313 314 314 314 314 315 316 316 315 318 318 317 318 318 317 316 314 312 312 311 311 310 309 308 307 307
323 323 324 324 324 323 323 323 323 324 324 322 321 320 317 313 312 315 325 333 327 316 314 311 309 309 309 309 309 309 308 308 312 311 308 309 309 309 311 311 312 313 311 312 315 316 313 312 312 314 315 315 314 314 315 316 316 314 313 313 313 313 314 314 313 313 313 315 318 317 316 319 319 317 317 317 316 315 313 312 312 310 309 309 308 307 306 305
322 323 323 323 322 322 322 322 322 323 323 322 321 320 316 314 317 325 331 330 324 318 314 311 311 311 310 311 311 310 310 310 310 309 310 310 309 309 308 308 309 311 312 312 313 314 311 308 308 311 313 314 312 311 311 314 313 312 312 313 314 315 315 314 313 313 315 318 319 318 317 318 320 318 317 317 315 315 314 311 311 310 309 307 306 305 304 303
321 322 322 321 321 321 321 322 322 322 322 321 321 318 318 321 324 332 333 326 320 318 314 312 313 311 311 314 316 313 311 310 309 310 311 310 311 311 309 310 310 312 314 314 314 315 313 310 310 311 312 312 312 311 311 310 310 311 312 312 313 315 315 315 314 314 318 322 319 317 317 318 319 318 316 317 315 313 314 312 311 310 307 306 304 303 303 302
320 320 321 321 321 321 321 322 322 322 322 321 319 320 324 327 327 330 328 322 323 322 316 315 314 312 313 315 319 316 312 312 309 310 313 313 313 313 313 316 315 317 320 319 318 318 317 315 313 313 311 310 312 313 312 311 310 311 312 312 314 318 319 321 320 318 321 321 316 315 317 318 319 317 317 318 314 311 312 311 309 308 306 304 303 302 302 301
318 318 320 320 321 320 321 321 320 321 321 319 320 325 327 327 327 328 325 324 327 322 316 316 314 313 315 317 319 316 314 314 310 309 312 313 313 314 316 317 315 319 321 319 320 320 320 320 316 315 312 310 312 314 315 315 312 311 313 314 316 320 323 326 325 324 324 322 315 314 317 319 318 317 317 317 312 309 309 308 307 306 304 303 302 301 301 300
315 316 317 319 319 320 320 320 320 321 319 318 323 327 327 327 326 325 325 325 323 319 317 317 316 316 316 319 320 316 317 318 311 309 312 312 313 316 318 315 312 314 317 317 319 320 321 321 318 317 315 312 312 314 319 318 314 314 314 315 316 319 323 324 324 325 325 323 319 317 318 320 319 316 314 312 309 308 307 305 305 304 303 302 301 300 300 299
312 313 314 316 317 319 319 319 320 320 318 320 325 327 326 327 326 323 324 324 322 320 318 317 318 320 320 320 320 317 318 319 314 312 314 315 317 318 319 317 312 312 315 318 319 319 320 321 318 316 314 312 314 316 319 319 317 314 312 313 315 318 323 322 322 323 322 321 320 319 319 318 318 316 312 308 308 306 305 305 304 303 302 301 300 300 299 298
309 310 310 311 313 316 318 318 319 318 318 321 325 326 325 325 324 323 323 321 321 321 319 319 321 322 322 322 321 318 318 318 316 315 316 317 318 318 318 318 315 313 314 318 319 319 318 320 320 316 312 312 315 316 316 318 317 312 311 313 315 316 320 320 319 320 320 320 320 319 319 318 317 318 313 309 308 306 304 304 303 302 301 300 300 299 298 297
306 307 309 310 311 313 316 318 318 317 318 322 324 324 324 323 322 322 320 318 318 319 321 322 323 322 322 322 321 320 318 317 316 316 317 318 318 317 317 318 317 314 314 317 319 319 317 317 319 318 315 313 312 312 313 314 313 312 314 316 315 314 314 315 318 320 320 321 321 319 319 318 318 319 315 311 308 306 304 303 301 301 300 299 298 297 297 296
304 305 307 309 309 311 313 316 317 317 319 322 323 323 322 321 321 320 319 318 317 318 321 323 323 322 321 321 320 319 318 318 317 317 317 316 315 317 317 318 318 315 314 315 316 317 318 317 318 318 318 315 310 310 312 311 312 314 315 315 314 315 315 314 317 319 320 321 321 319 319 318 318 318 316 313 309 306 304 302 301 300 299 298 297 296 296 295
304 305 307 309 308 308 311 314 316 317 319 321 322 322 321 320 320 319 318 318 319 319 320 321 321 320 319 319 318 318 317 317 316 315 316 315 315 316 315 316 317 314 312 313 315 316 316 316 318 317 317 316 312 313 316 314 312 312 312 311 311 313 314 315 317 318 319 320 321 321 320 319 318 317 315 313 310 307 305 303 302 300 299 299 298 297 296 296
306 307 309 310 308 307 311 314 317 319 320 321 321 321 320 320 319 317 316 317 318 319 319 319 319 318 319 318 317 317 316 317 316 314 315 314 314 315 314 314 317 314 311 311 313 315 315 315 316 315 315 315 314 315 316 315 313 311 311 311 312 312 312 314 316 317 319 319 320 321 320 320 316 313 312 310 308 307 306 304 302 301 300 299 298 298 297 296
307 307 310 310 308 309 312 315 318 320 321 320 319 319 319 319 318 316 315 316 317 317 316 317 318 318 318 317 317 316 316 317 317 316 316 315 314 316 314 312 314 315 313 313 314 314 314 315 315 315 314 314 314 315 315 314 314 314 313 313 313 313 313 315 316 317 318 318 319 319 320 321 315 308 309 308 306 306 305 304 303 301 300 299 298 297 297 296
306 307 310 311 309 310 314 316 317 318 319 318 317 317 318 317 316 316 316 316 316 317 316 316 317 317 317 317 316 316 316 317 318 317 317 316 315 316 312 310 312 313 313 315 316 312 309 311 314 315 315 314 314 315 315 314 314 314 314 314 313 313 314 316 317 318 318 318 319 318 320 322 312 305 305 305 304 304 303 303 302 300 299 298 297 296 296 295
306 308 309 310 310 311 314 315 315 316 317 317 316 316 316 316 316 316 316 315 316 317 317 317 316 316 316 316 315 315 315 316 316 316 315 316 315 313 310 310 310 311 312 314 316 313 309 311 314 315 314 314 313 315 314 313 313 314 314 314 313 314 315 316 315 316 316 317 318 317 320 320 309 302 303 304 303 303 303 302 302 300 299 297 296 295 294 294
307 309 308 308 310 312 314 314 314 315 315 315 315 316 315 315 315 315 314 315 315 315 316 317 316 315 315 316 316 316 315 315 316 316 315 316 314 310 308 310 310 310 311 312 314 315 313 314 315 315 316 315 314 315 315 313 313 314 315 314 313 314 315 314 313 314 315 316 317 316 319 318 308 301 303 303 302 303 302 301 300 300 299 297 296 295 294 293
305 306 307 307 308 310 313 312 312 314 314 314 315 314 314 314 314 314 313 313 313 314 315 315 314 314 315 315 315 315 315 315 315 315 314 315 314 310 308 310 310 309 309 309 310 312 312 313 314 314 315 315 314 314 314 314 314 314 315 315 314 313 314 314 313 314 315 316 316 315 317 315 308 304 304 303 302 302 301 298 298 298 298 297 296 294 293 293
303 304 307 308 308 309 310 310 311 313 313 313 314 313 313 313 313 313 313 312 312 312 313 313 313 313 313 314 314 313 313 313 314 314 313 313 314 310 307 307 308 307 307 307 307 309 310 311 311 312 313 313 312 312 311 312 312 312 313 314 313 313 314 313 313 313 314 313 313 313 314 313 311 309 307 305 303 302 300 298 297 296 296 295 295 295 294 294
300 302 307 308 309 310 310 309 310 312 312 311 312 312 311 311 311 312 312 311 311 311 312 312 312 312 312 312 312 311 311 311 312 313 312 312 312 310 306 306 305 304 305 306 306 307 309 308 309 310 310 310 310 310 309 310 310 310 310 310 310 311 312 313 313 312 311 311 311 310 311 311 311 309 308 307 304 302 300 298 297 296 295 295 294 294 294 294
299 301 305 306 307 310 311 310 309 311 311 310 310 310 310 310 309 309 311 311 310 311 311 312 312 312 311 311 311 311 311 311 312 312 311 311 311 308 306 307 305 303 304 306 305 306 307 306 306 307 308 308 307 308 308 308 308 309 309 309 309 309 309 311 311 310 309 310 310 309 309 309 308 307 307 306 303 301 299 296 295 295 294 294 294 293 294 294
298 299 301 302 304 307 308 308 309 310 311 310 310 309 309 309 308 308 310 310 310 310 310 311 311 309 308 310 311 311 311 311 310 310 310 309 308 306 305 306 304 302 303 304 304 305 305 306 306 306 306 307 306 306 306 307 307 307 307 307 307 307 307 307 307 307 307 308 307 307 307 306 306 305 304 301 299 297 296 295 294 294 294 293 293 293 293 293
298 298 299 300 301 302 303 305 307 309 309 309 310 310 308 307 306 308 309 309 309 309 309 309 309 306 304 306 308 308 309 309 308 307 307 308 307 305 304 304 303 302 302 302 303 304 305 306 305 303 305 306 305 305 305 305 305 305 304 304 304 305 305 305 305 305 305 305 305 305 305 305 303 301 298 296 296 295 295 294 294 294 293 293 292 292 292 292
298 298 298 300 301 301 301 303 305 307 308 308 309 309 308 307 306 306 307 306 306 307 307 307 307 304 303 304 305 305 306 306 305 304 304 304 303 303 303 303 303 302 302 302 302 302 303 304 303 302 303 304 304 303 303 302 302 302 302 302 302 302 302 302 303 303 303 303 303 303 303 303 300 297 295 295 295 294 293 293 293 293 293 292 291 292 292 292
296 296 297 298 301 301 300 301 303 305 306 306 307 307 307 306 305 305 306 304 302 302 304 305 305 304 303 304 304 303 303 303 301 300 300 300 299 299 300 300 301 301 301 302 301 301 301 301 301 302 302 302 302 302 300 299 299 300 300 301 301 301 301 301 301 301 301 301 301 301 301 300 298 295 295 294 293 292 293 293 292 292 292 291 291 291 291 291
Wind_Speed
2 1 1 1 1 1 1 2 2 3 3 3 4 3 4 4 4 4 4 5 5 5 6 7 7 8 9 9 10 10 13 13 10 7 9 11 9 8 10 6 4 8 11 8 9 8 7 8 7 7 6 4 3 2 3 2 3 3 4 5 5 6 6 3 4 6 6 8 7 4 2 6 9 4 2 1 7 11 13 15 12 12 14 17 17 8 6 8
3 3 3 2 2 2 2 2 3 3 4 4 4 5 5 5 5 5 6 6 6 6 6 7 7 8 9 9 10 10 15 15 11 11 14 12 7 5 7 7 5 7 12 11 10 10 7 7 8 8 6 4 3 3 3 3 4 5 5 6 6 7 8 4 7 9 9 10 11 11 8 7 9 7 3 6 11 10 13 15 13 13 15 17 18 16 13 10
3 3 4 3 3 3 3 3 3 3 4 5 5 5 5 6 6 6 7 7 7 7 7 8 8 8 9 9 9 10 14 13 10 9 7 5 4 3 4 6 6 8 11 9 10 10 6 5 7 8 6 4 3 4 4 4 5 6 5 6 7 8 10 7 8 10 11 11 12 13 11 10 10 8 6 9 13 11 13 15 13 14 13 12 12 14 13 12
4 4 4 3 4 4 4 4 4 4 5 5 6 6 7 7 7 8 8 8 8 8 7 8 8 9 9 8 8 10 11 10 6 2 6 5 3 2 3 5 6 8 10 6 7 8 5 4 6 7 6 6 4 4 6 5 4 4 6 8 9 9 10 9 10 11 10 9 11 13 12 13 10 7 7 10 11 10 12 14 14 15 13 12 10 10 8 11
5 5 4 4 5 5 4 4 4 5 6 6 6 7 7 8 9 9 9 10 10 10 9 9 9 9 9 8 7 7 7 6 1 6 7 3 0 1 3 5 6 10 10 6 6 6 6 6 6 6 6 7 6 5 8 8 5 5 8 11 13 12 12 11 11 8 5 7 10 13 13 12 8 5 9 12 12 10 12 14 16 17 15 15 14 13 9 10
5 5 5 5 5 6 5 5 5 5 6 6 7 7 8 9 10 10 10 11 11 11 10 10 10 9 8 7 5 3 5 4 2 5 5 3 5 5 3 4 7 12 10 8 8 7 8 7 7 7 6 7 9 8 9 7 6 6 10 12 13 13 13 12 11 3 1 9 12 13 12 12 11 11 12 14 15 16 16 17 19 20 19 18 16 14 12 12
5 6 6 6 6 6 6 5 5 5 6 7 7 7 8 9 10 11 11 11 11 11 11 10 10 9 8 5 2 2 5 8 5 6 7 8 9 6 4 6 10 14 12 10 10 8 8 8 8 7 7 8 9 10 10 6 6 8 11 12 13 13 13 13 12 5 5 11 14 13 13 15 16 14 13 15 16 18 20 19 20 20 20 19 16 14 14 15
6 7 7 7 6 6 6 5 5 5 6 6 7 8 9 10 11 11 12 12 12 12 11 10 9 8 5 1 2 5 7 9 9 8 10 11 10 7 6 8 13 15 13 13 11 9 8 9 10 7 8 9 8 8 6 6 8 11 13 13 12 12 12 12 12 10 10 11 11 12 15 18 18 14 17 21 19 19 20 20 20 19 18 17 16 15 14 15
7 8 8 8 7 6 5 5 5 5 6 7 8 8 9 10 11 12 12 13 13 13 12 11 10 7 3 2 4 7 6 9 11 11 11 11 9 8 9 10 15 15 13 13 11 9 7 7 9 7 9 10 9 8 5 6 7 7 9 11 11 11 13 13 14 14 11 9 9 12 17 19 17 14 17 20 18 17 18 19 18 16 16 15 14 15 14 14
8 8 9 9 7 6 5 5 5 6 6 7 8 9 10 10 11 13 13 14 14 14 12 11 9 7 5 4 6 8 4 5 8 8 9 8 8 9 11 10 14 15 12 11 10 11 9 7 5 1 6 9 8 9 8 8 5 5 8 10 13 15 15 15 17 16 13 12 12 14 17 18 14 11 13 14 11 9 11 14 15 13 14 14 13 13 13 14
9 8 9 8 6 5 5 5 5 5 6 7 8 9 10 11 12 13 14 15 15 15 13 11 9 7 5 5 8 7 1 3 5 6 8 7 7 11 12 11 12 14 12 9 10 11 10 7 3 1 3 4 5 8 8 5 6 8 9 11 15 18 17 17 19 17 13 11 11 13 16 17 13 11 15 17 14 11 10 12 13 13 14 14 15 14 12 12
10 9 8 7 4 4 5 5 5 6 7 8 9 9 11 12 13 14 14 15 15 15 13 10 7 6 5 7 10 9 5 5 6 8 8 6 8 12 14 12 11 11 10 8 9 9 8 5 3 8 5 2 6 7 3 2 5 7 8 11 16 16 16 18 18 16 14 7 4 6 10 13 12 13 18 19 16 12 11 12 12 13 14 13 14 13 12 12
10 8 7 5 4 5 5 5 5 7 9 9 10 11 12 13 14 14 13 13 13 12 11 8 6 6 5 6 7 11 12 11 12 11 9 8 8 11 13 13 11 12 10 6 4 3 6 5 6 11 7 6 8 3 1 3 4 7 9 8 11 12 13 15 12 8 9 5 8 5 7 9 11 13 16 12 8 7 8 11 13 13 13 13 13 13 13 15
9 7 6 5 4 4 5 5 6 8 9 10 11 12 13 14 14 13 12 12 11 10 8 6 7 7 6 6 3 7 10 11 10 9 8 7 5 6 8 9 10 12 11 5 3 2 3 5 7 9 5 7 7 4 5 7 5 8 9 6 7 8 8 11 6 5 4 4 9 7 7 8 12 14 12 6 1 5 9 14 16 15 13 12 13 14 15 16
8 6 5 4 3 4 4 5 7 9 10 11 11 12 14 13 11 10 10 9 8 6 2 4 9 6 5 7 3 3 5 6 6 6 7 7 6 5 6 7 6 8 7 3 2 2 2 5 6 7 5 4 5 7 8 8 6 8 8 7 7 7 8 10 6 8 6 3 9 10 6 8 11 11 10 6 4 8 12 16 18 17 16 15 15 14 15 15
6 5 4 4 3 4 4 5 8 9 10 11 12 13 12 9 8 8 7 5 4 2 5 4 8 6 7 4 3 2 2 4 6 7 7 8 6 4 6 7 5 5 4 3 3 3 4 6 4 4 5 4 5 8 7 6 7 7 8 9 8 9 10 8 5 6 5 2 9 12 8 9 9 11 13 14 15 16 16 18 20 20 18 16 14 13 13 13
6 4 4 4 3 3 4 6 8 10 11 11 13 13 8 6 5 4 3 1 3 6 5 1 5 5 5 2 2 1 3 3 5 4 5 8 7 5 8 6 5 6 5 5 5 6 6 7 3 1 5 7 7 7 6 6 6 6 8 9 10 11 10 8 7 4 2 4 9 12 11 13 13 14 16 17 17 17 18 20 20 19 16 14 14 14 12 12
6 5 4 4 3 4 5 6 8 10 11 11 13 10 4 3 3 1 3 4 5 6 3 2 4 4 3 3 2 0 4 3 4 3 3 7 7 6 6 5 5 8 7 5 6 7 6 5 4 4 6 8 8 6 6 8 8 10 10 9 10 11 11 12 11 7 6 11 13 13 14 16 16 15 15 16 16 15 18 21 18 16 17 16 14 13 12 10
6 5 4 4 4 5 6 7 8 10 10 11 12 7 3 3 1 2 2 3 3 2 1 2 5 5 5 4 1 3 3 3 3 2 4 6 6 7 5 4 6 8 6 4 6 9 6 4 5 5 7 9 9 10 12 14 15 17 14 11 12 13 13 15 15 13 14 16 14 15 16 16 16 16 15 16 16 17 19 20 17 15 16 16 14 11 8 5
6 5 4 4 5 5 6 7 8 9 9 11 11 6 4 2 2 2 3 6 6 8 8 5 8 9 12 9 1 3 1 4 3 2 5 7 7 7 6 5 6 6 7 5 5 6 5 6 7 8 10 11 12 13 15 16 16 18 15 12 14 15 13 14 15 14 13 13 11 13 16 16 16 16 17 17 17 17 19 18 17 16 15 14 11 6 3 3
6 4 3 3 4 6 7 8 9 8 8 10 9 5 2 3 4 2 2 7 10 11 11 11 12 12 15 9 2 2 2 2 3 4 6 8 7 7 6 7 5 5 8 7 3 3 3 7 9 11 13 14 13 10 10 12 14 15 13 12 14 13 13 15 16 15 11 9 9 12 15 17 17 18 20 18 16 16 16 16 17 18 15 8 3 4 4 2
5 3 2 3 4 7 9 10 10 8 7 7 6 4 3 3 3 1 3 7 9 10 13 15 14 12 14 9 0 0 3 6 5 5 8 8 7 6 5 6 7 5 5 6 3 2 5 9 12 14 14 14 13 9 9 11 13 13 11 11 11 9 12 14 12 8 3 3 8 13 15 14 17 21 20 16 12 12 13 16 18 15 9 5 5 5 5 3
6 3 3 4 5 8 10 10 10 8 7 5 4 3 2 0 1 1 2 6 7 9 11 10 10 9 10 7 2 2 6 9 8 5 10 9 6 6 5 6 8 7 5 7 7 7 6 6 8 13 13 13 13 11 11 12 11 10 9 10 10 9 12 10 7 5 3 7 11 14 13 12 15 15 10 7 8 8 12 17 14 5 4 3 4 5 5 8
7 4 4 5 6 8 9 11 10 6 4 3 2 3 2 1 1 2 3 5 6 6 4 2 4 5 5 3 1 4 7 6 4 5 10 9 5 5 6 7 8 9 8 11 12 12 13 7 1 6 10 11 13 12 11 10 9 11 11 10 11 13 14 13 11 11 11 11 9 10 10 7 4 3 3 3 5 7 13 12 2 6 6 4 5 8 10 11
8 7 7 8 8 8 9 11 6 3 4 1 0 2 2 0 2 2 3 4 5 2 2 2 2 2 1 1 1 3 5 5 1 2 6 5 3 4 4 4 6 9 9 12 13 11 12 5 3 5 9 10 12 11 11 11 8 10 10 10 13 14 15 15 14 12 9 6 1 5 8 3 2 1 4 4 6 13 15 4 7 9 7 8 9 11 12 13
10 9 10 10 10 8 7 6 3 4 4 1 1 3 1 1 1 2 2 4 5 2 3 3 3 2 2 2 2 2 4 4 2 2 3 2 3 2 3 2 3 6 4 5 7 5 5 3 2 5 9 9 10 10 12 12 9 8 5 5 9 11 12 12 12 8 6 5 2 3 5 6 4 8 9 6 10 15 7 9 12 10 11 11 11 12 13 13
13 12 12 12 11 9 5 3 2 3 3 1 2 4 2 1 1 2 2 4 5 2 3 2 1 1 1 2 1 2 2 4 4 2 2 1 1 2 4 3 3 3 1 1 4 2 4 6 3 3 6 8 8 9 9 9 9 6 3 5 6 8 10 9 7 6 6 8 8 5 7 8 7 6 5 7 12 8 8 15 13 12 13 13 14 15 14 14
16 16 15 14 13 12 8 4 2 2 3 2 3 4 4 2 2 2 3 5 3 2 2 1 2 1 1 1 1 1 1 2 3 2 2 1 2 2 4 6 5 2 4 4 4 1 3 4 4 4 6 6 8 7 2 4 8 2 5 4 4 4 6 6 5 7 7 8 8 5 7 7 7 3 3 6 7 3 12 13 13 14 13 13 14 15 14 14
21 19 18 15 13 14 13 10 6 5 5 5 5 5 4 2 2 2 2 3 1 1 1 1 3 2 2 3 3 3 1 1 0 2 3 3 2 1 2 3 5 5 5 7 8 4 1 1 1 2 5 5 5 3 5 2 5 2 3 3 3 3 5 5 6 6 6 8 9 6 9 6 7 4 2 3 2 5 10 10 12 13 12 12 12 13 14 12
20 17 16 14 12 12 12 12 13 11 9 7 5 4 3 2 3 3 4 3 1 1 2 1 2 2 4 5 5 5 3 1 2 3 4 3 4 3 1 0 3 5 6 7 10 9 2 3 2 3 7 5 1 3 4 2 2 2 3 5 5 7 6 5 5 4 5 8 8 7 13 8 6 3 0 2 3 4 7 10 10 12 12 12 11 12 12 10
13 12 12 12 11 9 7 6 11 13 11 7 2 2 2 2 2 4 4 1 2 0 3 3 1 3 5 4 2 4 4 2 4 5 4 2 5 5 3 2 2 3 5 6 7 8 6 4 3 4 6 4 1 1 1 3 1 1 3 4 6 6 4 5 4 3 5 6 3 1 7 9 7 1 1 2 8 8 7 10 11 11 12 11 11 10 10 10
8 8 9 11 11 10 8 3 4 9 10 6 2 1 1 2 3 5 2 0 1 2 2 2 2 3 4 1 2 1 1 2 3 3 1 1 2 4 4 3 2 2 5 3 1 4 5 7 7 4 2 4 4 3 2 3 3 3 3 4 5 5 4 5 4 4 6 4 3 4 1 6 8 5 8 5 8 12 9 11 12 12 12 11 10 9 8 9
8 8 9 12 13 12 10 5 2 6 9 6 3 2 0 3 5 3 3 3 1 1 1 3 2 2 2 1 1 1 1 1 3 1 1 1 0 3 4 2 1 2 4 2 3 4 3 3 7 6 2 5 7 4 2 2 4 5 4 4 4 5 6 7 6 6 7 2 3 2 0 4 7 6 9 5 10 14 12 13 13 12 12 10 9 8 8 9
9 9 10 13 15 14 12 8 4 7 9 7 3 1 3 7 3 1 4 6 1 1 1 2 2 3 3 3 2 3 2 1 4 3 1 2 2 3 4 4 3 1 1 1 2 3 5 4 6 7 3 8 10 6 1 2 2 4 1 1 3 4 5 6 5 6 7 7 5 2 2 4 4 3 6 9 13 14 12 13 12 11 11 9 9 9 9 9
8 9 9 11 15 15 13 10 7 8 9 6 2 2 7 7 2 2 5 4 1 1 1 1 2 3 5 6 3 3 2 2 4 4 3 4 4 5 5 4 7 5 2 2 2 3 6 7 5 4 4 9 9 4 3 3 1 1 1 1 2 2 2 3 5 6 7 9 9 5 4 5 6 1 11 14 14 13 12 12 12 11 10 9 8 8 8 8
6 7 8 10 14 15 14 12 11 10 8 4 3 6 7 5 3 4 3 1 1 1 1 3 4 5 7 6 4 5 3 2 3 3 4 6 7 9 9 4 7 11 7 4 2 2 5 6 4 5 2 8 7 4 5 3 1 2 2 3 1 1 2 2 5 4 4 8 8 6 7 8 8 6 8 15 14 12 11 10 11 10 10 9 8 7 7 6
4 4 5 9 14 15 15 13 12 12 7 4 6 8 6 6 8 7 1 2 0 1 0 3 3 3 6 5 3 5 5 4 4 4 4 5 6 8 10 7 6 12 13 7 3 3 5 8 4 8 8 5 2 2 2 2 1 3 3 2 1 1 1 2 4 3 4 8 6 7 11 10 7 6 6 14 13 10 9 10 9 8 8 9 7 6 6 5
5 3 4 11 16 15 14 15 13 10 5 4 9 10 6 6 9 7 3 3 0 1 3 5 2 2 6 7 9 7 5 5 5 5 5 6 5 3 6 7 6 9 11 8 4 1 3 9 6 7 9 3 5 1 3 2 1 1 1 0 1 2 3 4 4 4 6 9 6 7 12 10 8 7 3 9 11 11 9 8 7 7 7 6 5 5 4 4
5 2 3 10 16 15 16 18 13 6 5 7 10 9 6 7 7 4 3 4 2 4 7 8 6 6 8 9 11 9 5 7 8 7 6 6 5 3 2 3 2 3 2 4 4 2 1 6 6 0 0 2 5 3 6 5 1 2 1 1 1 2 4 4 3 2 6 9 8 7 9 8 6 3 1 7 11 10 9 8 7 6 6 5 5 4 3 2
5 2 1 6 13 16 18 17 10 5 7 8 9 7 3 4 4 2 2 3 4 6 8 10 10 9 11 12 12 10 8 10 10 9 8 7 7 2 4 4 3 4 3 1 4 3 2 6 7 2 1 2 4 4 6 8 5 3 4 5 4 4 2 3 3 3 5 9 9 9 9 7 2 3 4 8 9 9 9 8 6 6 6 5 4 3 2 2
4 3 2 5 12 18 18 13 7 6 8 8 7 7 5 3 1 2 2 3 5 5 3 7 10 10 10 11 11 9 8 8 9 9 8 8 10 4 4 4 4 4 2 2 2 2 2 4 7 7 5 6 7 2 1 4 3 1 3 5 6 5 3 4 7 6 5 7 7 9 10 4 1 4 4 7 7 7 8 7 6 6 5 5 4 3 2 2
5 3 2 7 15 20 16 9 7 5 7 8 6 5 4 1 1 4 3 2 5 4 1 4 8 8 8 9 9 9 7 6 7 8 7 7 10 6 2 4 4 4 3 3 1 1 1 1 5 8 8 11 13 5 3 2 2 2 3 2 2 3 2 5 8 5 3 4 4 6 8 3 2 4 5 7 6 6 6 5 6 5 5 5 4 3 3 3
5 3 3 7 18 22 12 6 8 7 8 8 5 3 3 2 3 5 4 3 4 4 3 5 7 8 9 8 7 9 9 6 8 10 9 9 7 0 4 3 2 2 2 2 2 1 1 1 4 6 6 9 14 6 4 4 1 2 3 1 1 4 3 4 5 2 2 4 4 6 6 1 3 4 5 6 5 4 4 4 4 3 3 3 2 3 3 3
4 3 2 4 16 19 10 6 8 9 10 9 8 8 8 6 7 7 7 7 6 5 5 6 7 8 7 3 3 7 8 6 6 6 7 8 2 5 5 4 2 1 2 2 2 1 2 2 2 4 4 5 7 5 2 2 1 0 0 1 1 4 4 3 3 2 3 5 6 7 5 1 1 1 0 1 1 1 1 2 2 1 1 2 1 1 1 2
3 3 1 2 8 9 6 4 5 8 11 12 12 12 11 8 8 9 10 9 8 7 6 5 5 6 6 4 3 5 6 5 3 2 2 4 1 4 5 6 4 2 2 4 3 2 3 4 3 5 6 5 6 7 5 2 1 0 1 2 3 5 6 4 3 5 6 4 4 6 5 2 2 4 5 5 5 4 4 3 2 2 2 2 1 2 1 2
2 3 3 3 3 4 3 2 4 7 10 11 11 11 13 12 8 6 7 9 10 10 9 7 5 5 7 8 8 8 9 9 7 5 4 5 2 3 3 4 5 4 3 4 3 2 3 5 7 9 10 9 10 11 10 9 7 7 7 7 8 9 8 6 6 8 8 6 6 8 8 8 8 8 7 7 8 7 6 6 6 5 4 3 2 2 2 2
2 3 5 5 4 5 5 3 4 7 9 10 8 7 11 14 10 7 8 7 6 7 9 9 9 9 10 10 11 11 11 12 10 9 9 8 4 1 2 2 4 4 1 1 1 1 3 6 9 12 13 14 15 15 15 14 14 14 14 14 16 16 12 10 12 13 10 10 10 9 11 13 11 11 11 7 7 8 6 5 5 4 4 4 3 3 4 4
2 1 2 2 3 6 6 5 5 8 10 10 8 7 9 11 12 9 7 5 1 2 5 6 8 10 8 7 8 9 9 9 8 8 7 5 3 1 1 3 3 2 1 2 1 1 4 8 10 12 13 15 16 16 16 16 14 13 14 15 16 17 18 16 16 16 13 12 13 12 15 17 14 14 16 9 3 6 4 3 2 2 2 3 3 4 5 6
1 1 1 2 2 3 2 3 6 9 11 9 8 10 11 12 12 7 3 4 4 4 6 6 5 3 0 1 4 6 7 6 5 4 3 1 0 2 2 2 3 3 2 2 2 2 4 6 6 6 9 12 14 16 15 14 13 13 13 15 16 19 22 20 18 18 17 17 18 19 22 23 19 14 7 2 5 4 3 2 2 2 2 2 3 4 5 6
1 1 0 0 0 1 2 2 7 8 8 7 7 9 10 13 13 6 2 3 6 6 6 6 4 4 2 1 3 5 5 3 3 3 1 1 2 3 3 4 2 2 2 1 2 2 4 3 1 3 5 9 11 13 12 11 12 12 14 16 19 20 20 18 17 17 17 19 21 22 23 20 12 2 5 6 5 3 2 1 2 2 1 2 3 5 5 6
2 3 2 1 2 3 2 3 7 7 7 8 8 7 9 13 14 10 3 1 3 6 7 6 4 4 2 3 5 7 3 1 1 2 1 1 3 3 2 1 1 1 1 2 1 1 3 3 2 3 6 7 8 10 10 9 8 10 13 17 20 19 16 15 14 14 15 17 18 18 16 10 1 5 6 5 4 3 1 2 3 2 2 3 5 5 6 6
1 2 2 3 2 4 4 3 6 8 7 7 9 8 8 7 7 9 8 2 3 2 6 6 6 4 5 7 7 5 1 4 2 2 2 0 2 2 3 3 3 3 3 2 2 2 3 4 4 5 5 5 7 8 6 4 7 10 11 13 16 16 15 15 14 15 18 17 14 11 7 1 4 5 3 3 3 3 3 4 3 3 3 4 5 7 7 7
Wind_Direction
3 358 339 339 332 331 318 308 305 311 308 304 302 302 305 305 307 309 311 311 316 320 317 320 319 319 320 323 330 326 324 320 305 270 245 276 284 247 245 251 250 213 199 173 164 178 177 195 194 187 205 192 216 208 158 208 218 224 233 248 257 262 280 293 280 299 304 299 304 283 227 275 292 269 190 271 252 256 269 270 263 247 240 245 254 248 211 231
330 322 316 315 317 325 315 308 310 311 303 299 302 303 306 304 306 307 306 309 310 314 316 318 317 319 319 323 329 326 324 317 288 268 262 271 271 238 244 243 240 200 187 180 184 195 196 203 191 189 214 205 188 171 181 190 193 225 249 261 257 265 287 304 290 299 299 292 298 299 292 279 284 291 290 274 273 273 274 272 268 258 249 247 248 239 224 221
299 296 300 309 316 314 306 310 311 308 299 299 303 301 302 300 302 303 305 308 306 312 316 317 319 319 319 324 328 328 327 312 282 274 255 229 202 224 253 234 236 199 186 194 203 210 224 228 193 196 226 232 203 182 211 183 184 233 242 258 260 268 281 280 285 292 290 294 294 294 298 288 279 281 269 265 277 278 271 272 272 269 266 264 255 247 230 214
290 289 292 304 312 310 309 310 305 302 299 301 303 301 303 303 303 303 304 305 306 310 314 317 319 320 323 327 328 334 326 296 279 142 144 151 158 218 259 233 223 191 186 208 219 215 234 235 199 213 238 246 224 201 232 198 178 237 223 250 269 282 286 277 287 292 287 297 293 292 295 286 284 279 253 258 274 269 262 266 271 275 284 291 296 297 262 219
302 302 300 304 310 313 309 306 306 302 300 301 300 302 305 305 305 304 304 307 308 310 315 319 319 321 326 330 332 338 321 291 89 124 152 151 175 296 273 241 205 184 186 204 208 201 215 215 205 222 238 252 241 216 242 219 201 254 236 250 268 277 280 279 291 297 293 298 288 285 284 285 292 272 250 254 260 259 264 276 283 287 294 299 299 304 283 232
310 310 307 310 313 315 314 314 314 303 302 303 301 304 303 303 303 301 303 304 305 307 313 315 316 321 324 330 332 325 299 289 126 171 209 254 285 304 279 228 190 182 187 197 197 195 208 209 206 223 234 252 251 241 256 227 194 253 257 255 265 270 274 282 293 299 273 281 277 279 286 290 282 269 264 257 252 255 264 274 283 287 290 294 292 288 271 247
315 310 306 311 316 317 318 316 313 306 305 305 304 305 301 300 299 299 301 299 301 303 307 310 311 315 321 331 317 243 251 268 259 227 245 266 272 283 252 211 185 182 188 199 197 197 207 212 218 239 250 254 260 255 261 244 203 244 268 269 272 276 276 282 287 272 252 266 270 280 287 282 272 275 279 268 260 262 266 269 273 280 284 287 285 276 266 258
307 304 307 314 317 319 319 314 310 305 303 302 302 300 297 297 296 297 296 295 296 296 298 302 302 310 320 327 263 258 239 252 264 256 260 265 263 256 227 195 183 183 195 205 202 208 216 224 231 244 256 257 270 267 259 252 238 243 258 270 276 277 275 279 282 269 258 260 267 275 273 269 269 280 281 274 270 266 266 270 271 275 279 280 278 272 266 263
307 309 314 318 323 324 321 316 310 306 303 300 297 295 294 292 292 292 291 291 291 291 291 290 290 293 283 228 261 274 254 243 253 264 267 260 254 234 207 192 189 189 202 212 213 223 221 236 245 244 264 276 278 272 259 246 257 260 264 279 288 285 282 281 278 267 256 255 260 262 263 265 273 282 276 269 269 267 263 266 272 276 278 277 274 272 268 264
316 316 315 320 327 325 319 315 311 309 305 302 301 298 296 296 294 292 290 290 289 288 287 283 281 269 248 228 246 263 259 226 236 258 266 253 242 212 196 196 194 194 208 215 216 224 227 251 276 299 283 284 276 269 255 244 280 315 296 295 288 283 283 277 274 268 256 256 252 250 262 271 279 281 271 268 270 273 264 264 275 282 284 281 276 273 269 266
310 311 313 320 323 320 319 312 310 310 308 306 304 301 301 300 296 294 293 292 291 290 288 284 273 253 238 229 244 258 214 189 226 252 259 245 218 196 196 200 195 202 216 217 217 228 241 259 295 34 273 284 278 265 244 253 303 299 297 297 283 279 278 271 269 266 254 254 248 244 262 274 276 262 256 265 268 269 267 269 276 282 286 284 280 276 270 265
304 304 312 322 320 324 319 311 316 318 319 314 308 307 306 301 297 296 294 292 291 289 288 283 261 228 227 242 244 248 232 227 249 259 255 232 205 198 201 201 194 207 227 234 230 230 244 257 241 238 251 305 283 276 245 285 303 281 285 287 282 280 276 269 266 261 252 239 194 227 265 270 260 244 247 257 261 261 261 267 273 276 282 285 282 278 273 269
300 300 311 322 323 329 321 319 329 330 328 321 316 315 311 306 304 300 296 294 291 288 285 271 236 200 226 263 241 232 238 244 255 262 255 230 211 208 210 208 201 207 225 249 261 238 236 240 240 247 266 273 268 310 324 256 258 273 276 268 280 284 275 272 265 249 246 197 140 192 270 278 272 266 267 274 271 256 256 273 283 281 282 282 281 277 273 272
292 294 308 318 324 329 325 335 338 335 333 325 321 319 314 312 309 306 302 297 291 287 278 239 200 186 226 264 217 210 233 244 249 252 246 220 188 198 210 214 211 213 220 240 294 293 240 230 240 253 269 260 271 337 292 256 244 270 277 252 261 273 274 280 259 175 203 158 153 207 260 278 284 287 290 314 321 248 267 283 287 284 282 279 274 273 271 270
286 294 308 316 329 328 333 345 342 338 334 328 325 320 317 314 311 311 305 298 295 285 255 186 181 181 256 258 200 188 227 233 220 220 230 202 177 195 192 192 200 206 213 218 251 256 197 199 222 249 249 230 268 286 272 265 256 261 272 260 249 257 274 282 245 199 232 190 169 207 260 274 276 288 294 309 290 269 276 283 284 282 280 276 272 270 269 271
283 292 306 316 325 325 342 346 342 341 335 331 327 322 317 314 318 318 311 301 290 161 132 159 179 198 286 264 152 140 187 203 203 216 230 199 195 205 154 154 159 168 189 186 193 181 177 197 211 271 258 231 245 256 262 269 261 248 251 261 261 266 281 285 267 250 254 167 185 211 255 279 278 288 292 296 292 287 285 283 281 281 279 275 274 271 271 275
275 287 301 303 308 331 346 342 343 341 336 335 330 324 317 320 329 329 347 69 122 126 129 182 176 206 269 236 189 207 141 174 200 218 231 196 193 183 151 155 158 155 150 141 166 172 179 197 190 268 241 240 246 248 259 257 256 257 253 261 260 261 277 287 292 299 175 196 230 231 246 265 273 280 284 285 285 286 285 281 278 280 282 278 276 274 275 278
273 283 293 292 313 338 337 338 343 342 340 339 334 327 308 318 337 36 84 107 114 120 137 154 177 221 229 192 238 88 101 133 174 175 205 183 178 179 175 177 160 158 157 153 181 184 185 195 197 233 232 233 238 228 239 245 255 276 281 284 280 273 283 290 292 301 282 271 275 268 263 272 280 282 281 281 282 281 278 277 279 284 286 282 276 275 277 279
271 279 290 301 321 331 333 340 342 343 344 342 340 328 275 273 243 170 179 179 162 192 250 163 197 258 303 285 252 94 94 130 151 134 152 155 160 176 186 186 171 179 186 178 189 185 189 198 192 228 234 230 230 220 233 249 263 279 288 291 290 285 284 287 286 291 294 290 286 282 280 286 292 291 287 282 279 275 272 277 286 288 282 277 274 277 285 292
270 279 292 307 320 329 338 345 345 347 346 347 345 315 258 269 256 202 201 229 241 262 286 269 237 267 292 295 68 97 112 167 169 109 144 148 152 170 173 177 180 202 223 211 186 175 193 214 205 218 234 243 248 243 250 260 270 281 287 284 281 280 279 282 282 283 290 289 282 285 288 292 297 294 284 275 272 273 274 279 284 280 272 271 276 296 10 42
268 269 283 315 333 343 344 349 353 351 350 353 343 307 307 359 315 328 329 267 255 256 266 264 258 261 269 278 90 87 3 211 196 122 151 158 158 185 176 177 197 218 227 216 167 125 201 228 227 231 244 257 265 275 284 282 280 280 281 280 277 277 279 281 281 284 294 293 282 288 292 294 297 289 278 273 272 272 273 275 270 266 271 283 338 27 26 6
247 241 303 327 343 348 341 345 350 350 359 0 346 339 37 20 321 338 325 286 268 253 251 257 259 256 261 269 166 21 310 264 235 140 154 166 174 207 174 174 223 236 204 190 192 216 224 236 238 240 252 261 266 280 289 281 278 276 275 275 273 278 283 283 282 284 301 297 290 298 298 295 287 277 277 281 271 257 256 257 254 261 287 341 19 357 341 25
226 235 312 321 335 338 329 332 339 344 358 3 2 18 45 324 271 197 249 281 280 251 238 252 257 250 261 262 179 208 247 251 251 171 160 173 184 208 201 204 240 251 206 201 233 243 246 255 240 239 250 259 261 263 267 270 270 261 258 266 272 281 284 285 292 293 292 283 290 301 296 285 275 265 270 276 254 241 249 253 255 275 15 15 359 2 31 69
225 243 285 294 304 309 307 317 327 327 339 4 32 26 23 224 174 185 255 272 275 254 219 248 261 251 268 274 179 223 227 224 243 173 164 187 188 173 214 230 238 248 233 231 244 248 259 279 32 240 249 255 262 263 263 265 263 256 254 261 269 277 281 289 302 305 301 288 289 306 295 283 270 218 149 212 239 259 264 259 235 85 87 92 66 59 62 67
228 238 261 272 280 284 292 307 309 270 297 339 120 3 17 185 157 179 276 271 256 246 149 153 210 221 230 224 214 238 219 189 171 135 161 214 217 157 208 227 228 246 240 239 248 254 265 268 118 243 254 254 259 261 257 254 265 269 262 262 267 277 288 295 303 309 304 287 356 360 315 290 125 267 290 291 276 272 272 278 88 88 84 82 78 72 66 60
232 235 253 265 267 266 280 296 245 245 291 217 234 332 335 294 156 194 269 279 257 212 139 182 198 185 154 149 181 203 206 176 88 70 158 265 297 235 254 172 192 261 267 253 258 265 264 227 179 251 256 254 252 254 252 250 263 273 283 300 284 287 297 298 303 306 294 288 333 16 305 280 269 276 278 272 263 267 290 52 68 68 71 72 66 62 57 53
234 235 250 265 259 242 247 295 254 262 292 163 287 311 306 307 159 193 253 271 262 149 124 188 200 198 139 79 178 208 191 135 110 107 150 282 281 233 256 210 192 249 198 263 276 240 207 215 221 237 241 244 242 252 252 238 251 269 12 4 323 306 302 302 305 289 277 293 290 243 231 263 283 280 245 230 254 274 54 68 70 63 61 62 60 61 55 48
236 240 252 262 253 231 226 260 288 269 283 315 306 299 315 308 197 217 275 273 275 107 115 126 111 114 98 92 231 226 51 124 147 108 96 233 233 191 234 246 272 266 175 211 249 124 140 202 215 213 225 238 242 266 310 231 248 292 44 0 338 321 299 300 294 281 285 294 286 213 194 254 285 279 196 221 250 61 77 79 80 67 53 54 60 62 55 47
240 245 252 251 239 228 228 239 240 238 263 284 289 297 317 296 233 257 262 259 260 118 73 87 137 144 137 173 207 188 155 224 320 86 132 187 221 237 249 268 299 281 215 224 247 268 53 108 357 251 242 258 263 319 19 297 265 19 32 319 303 264 263 269 266 280 290 276 274 224 192 242 295 281 208 194 190 100 97 90 84 78 65 59 57 55 54 50
237 242 245 236 225 221 224 236 240 240 252 262 277 309 308 257 249 241 216 227 314 93 113 150 156 145 178 193 192 191 197 167 95 130 161 169 174 205 242 71 290 269 237 236 250 260 231 102 36 259 245 263 7 62 42 9 341 3 310 296 286 261 247 248 252 271 275 265 278 234 198 219 291 306 305 111 92 84 106 105 93 83 75 64 52 50 50 48
227 232 231 221 219 216 209 239 246 236 238 245 270 345 293 246 238 232 221 240 307 147 146 169 146 155 197 212 189 192 191 146 147 175 188 163 174 192 202 199 221 248 246 240 241 243 220 189 212 222 231 243 203 181 124 86 81 273 279 293 298 278 239 238 227 204 250 262 326 36 186 221 252 289 50 106 82 64 81 107 103 87 77 66 55 51 45 45
209 214 209 204 213 215 209 261 265 221 218 214 155 52 298 255 233 224 219 354 260 226 168 155 154 177 194 268 316 220 182 155 172 204 206 134 187 199 209 226 223 257 265 273 271 247 229 216 209 180 174 208 216 229 173 145 172 219 244 263 287 285 259 257 243 222 251 246 92 68 100 242 251 264 271 273 74 74 77 94 102 95 84 75 66 60 51 49
197 199 195 198 208 211 214 244 255 192 188 168 139 77 108 235 239 210 196 222 253 283 55 82 110 159 173 252 271 156 334 178 153 183 357 63 286 235 239 261 19 303 279 320 340 297 276 228 191 179 162 187 196 217 241 214 185 191 224 242 258 279 280 274 272 269 267 269 91 96 5 269 264 265 263 263 84 88 88 86 91 92 91 87 80 72 63 58
196 196 196 201 210 214 214 220 211 183 171 153 129 100 208 226 238 117 214 221 216 46 70 80 127 184 201 233 203 153 231 238 147 165 181 157 220 245 245 223 183 224 271 243 303 255 259 278 187 179 152 163 190 222 253 67 153 198 251 296 261 275 280 278 285 285 287 307 315 251 205 270 288 46 89 95 90 91 90 90 92 90 91 90 82 75 66 61
199 198 200 205 213 218 212 208 207 188 168 153 138 196 222 231 213 202 233 228 195 159 156 167 221 242 246 241 207 168 230 247 159 174 206 209 238 255 251 215 182 179 173 225 239 192 244 259 195 157 127 159 186 204 121 103 147 247 56 76 252 220 196 248 267 274 295 306 292 254 238 274 287 73 107 104 96 95 92 91 93 89 89 87 75 68 62 60
206 207 214 217 220 219 208 201 198 183 166 161 202 215 226 235 223 222 247 253 214 178 158 215 222 248 261 248 202 176 190 218 186 193 225 225 247 258 257 245 176 180 186 205 224 199 252 260 163 125 166 189 192 166 153 187 207 127 173 203 230 111 152 243 259 250 265 276 270 251 256 266 272 252 138 111 95 95 91 84 85 82 84 83 73 68 61 58
214 217 228 228 226 219 206 199 190 179 170 183 217 228 230 231 234 236 217 79 313 20 25 242 229 250 266 264 241 198 176 191 204 203 233 242 250 246 244 245 184 188 202 214 248 229 254 277 212 180 221 222 155 131 173 216 138 141 200 216 48 40 124 242 256 233 230 255 257 250 262 265 265 261 138 113 103 100 92 85 86 82 81 81 77 75 69 61
209 214 252 240 230 218 203 195 184 179 180 202 226 238 239 232 236 233 185 134 239 278 216 235 243 259 264 265 274 261 189 191 218 217 244 264 260 220 229 236 185 188 214 221 246 233 238 279 261 201 226 205 107 149 230 213 157 158 231 334 94 254 249 222 232 240 240 255 259 249 264 267 250 253 192 128 119 115 111 104 99 94 93 95 95 93 82 74
180 178 263 234 220 210 195 186 178 181 203 210 227 236 233 233 232 217 177 155 182 226 235 249 247 241 252 260 275 275 232 231 255 256 256 261 253 204 206 262 167 136 250 219 237 261 187 266 277 120 274 126 128 195 227 214 156 83 239 260 119 249 267 248 227 234 244 258 264 251 258 260 254 283 112 122 119 124 128 121 114 111 111 112 114 116 116 116
174 198 249 194 192 188 179 176 176 201 213 215 230 234 232 245 230 176 174 191 209 229 246 253 247 245 257 262 265 265 255 255 260 261 259 258 258 223 70 8 10 58 37 195 236 259 199 237 260 290 37 206 203 217 243 248 238 192 210 220 210 209 240 266 248 224 240 256 261 256 254 246 260 7 76 110 111 119 121 117 117 113 111 110 109 116 123 119
190 234 216 156 170 166 158 167 193 208 214 227 241 239 237 257 207 154 166 210 230 239 263 260 253 256 262 262 260 258 260 260 253 255 258 252 254 249 71 19 354 36 23 259 240 267 243 240 257 264 252 243 247 243 356 295 288 271 235 225 230 230 207 242 244 224 223 248 254 259 260 242 75 13 57 94 94 96 99 102 107 102 99 99 91 87 87 77
203 221 148 140 164 162 155 177 206 201 218 229 233 231 224 189 175 192 176 195 232 232 250 255 252 256 255 256 262 262 259 255 248 251 253 247 250 255 35 19 7 27 357 299 298 53 25 285 262 263 256 265 280 297 83 62 19 352 274 257 300 289 247 245 251 246 242 260 270 267 261 248 46 15 48 74 71 72 75 76 89 95 92 84 72 62 53 37
211 203 107 137 167 169 166 196 206 205 223 229 234 230 208 200 225 213 189 199 225 221 216 229 236 243 247 252 258 257 256 252 246 248 249 252 253 350 35 0 7 13 335 293 261 140 118 232 251 259 261 278 285 280 111 99 129 233 241 183 306 279 270 255 255 281 298 259 269 268 253 245 19 6 41 63 58 61 65 63 72 81 90 87 68 48 28 5
211 189 88 161 179 180 187 205 203 210 218 225 236 233 227 232 234 227 220 217 220 223 229 234 240 241 245 264 267 253 257 256 247 248 252 261 276 73 49 4 18 1 329 327 296 261 254 263 276 288 286 289 278 250 163 97 108 208 272 115 224 255 265 268 243 243 241 217 227 257 266 255 71 336 15 115 145 175 138 80 69 74 118 123 117 81 353 316
185 184 129 195 191 194 213 223 217 219 216 221 231 232 233 235 225 225 235 236 231 233 238 239 247 251 247 256 265 251 249 248 250 263 250 254 267 71 40 16 32 57 33 18 355 295 275 277 284 283 275 269 260 255 272 315 82 141 233 207 227 233 235 259 273 261 253 225 215 253 273 264 192 215 220 213 215 215 198 182 192 203 190 181 197 213 247 300
192 200 173 172 212 239 254 260 254 237 220 221 230 231 234 235 221 199 215 237 242 237 240 246 252 256 249 245 250 251 244 239 238 244 248 249 239 85 58 38 53 61 40 3 344 291 270 268 257 257 258 261 264 272 292 303 288 278 275 266 265 253 235 239 258 257 265 280 266 251 255 264 264 258 239 204 200 215 210 198 197 192 188 195 215 236 261 294
248 215 172 169 210 233 234 234 234 233 229 226 228 230 234 238 234 202 191 220 249 238 237 248 247 242 242 241 244 252 253 248 242 242 253 262 252 146 128 119 75 51 11 336 1 285 263 266 260 255 255 259 265 271 280 283 277 276 279 275 272 269 258 247 251 259 270 278 269 260 263 270 276 284 283 260 213 212 213 197 193 188 188 196 214 239 257 269
259 241 154 174 220 214 221 221 199 211 228 231 233 239 237 233 231 224 206 199 202 217 225 239 238 239 249 250 241 244 248 250 245 239 248 265 253 207 184 152 115 86 186 176 152 220 257 264 265 265 265 264 267 271 272 273 277 280 278 274 273 271 266 259 259 266 270 266 268 278 279 277 280 283 287 288 206 185 188 177 182 198 208 214 231 248 257 262
243 271 9 346 284 207 205 187 176 198 220 224 233 241 238 231 229 226 193 191 204 209 221 233 221 192 57 292 226 226 231 238 245 232 209 115 232 250 261 235 164 126 135 189 203 232 257 257 264 283 284 277 274 274 273 275 279 278 272 269 268 265 264 266 269 271 269 266 271 276 274 274 278 283 292 36 109 135 141 143 198 238 239 250 269 276 283 281
282 298 64 79 243 103 65 146 178 196 212 211 225 237 235 235 236 225 137 195 222 211 211 228 202 126 93 183 199 223 243 270 292 267 159 123 256 262 266 261 229 128 114 193 219 267 269 259 42 7 299 278 271 271 273 275 276 275 270 266 262 262 265 270 272 271 269 268 269 269 270 273 279 325 82 99 107 105 109 161 276 276 284 327 314 306 310 313
329 340 336 250 206 161 140 173 187 199 211 210 216 226 225 232 238 236 216 176 229 233 233 225 176 129 143 214 228 245 248 93 280 266 115 174 275 299 302 273 250 156 186 203 201 277 277 282 2 332 282 267 265 273 280 284 282 272 262 257 255 259 264 264 264 264 265 267 267 266 269 275 320 87 100 114 102 77 36 328 327 334 351 336 320 312 314 319
247 312 300 274 231 173 167 171 191 206 218 218 221 226 229 232 232 229 225 154 102 256 269 244 211 209 235 237 249 267 117 109 125 96 87 193 287 307 279 265 259 246 236 232 248 255 252 264 282 280 273 265 264 275 298 312 286 266 249 241 245 252 258 258 259 259 259 263 268 271 276 321 89 91 97 95 71 25 338 333 329 323 329 324 312 308 313 322